FW6069 Weather Reports


time (UTC)temp
C
wind
direction
speed
KPH
gust
KPH
rain 1hr
cm
rain 24hr
cm
rain mn
cm
humidity
%
barometer
mb
20260510230447 26 188 0.0 0.0 0.00 0.00 0.00 81 1014.6
20260510225947 26 188 0.0 0.0 0.00 0.00 0.00 80 1014.5
20260510225448 26 178 0.0 0.0 0.00 0.00 0.00 80 1014.6
20260510224947 26 178 0.0 0.0 0.00 0.00 0.00 80 1014.7
20260510224446 26 178 0.0 0.0 0.00 0.00 0.00 80 1014.7
20260510223949 27 176 0.0 0.0 0.00 0.00 0.00 80 1014.7
20260510223945 27 178 0.0 0.0 0.00 0.00 0.00 79 1014.7
20260510222945 27 176 0.0 0.0 0.00 0.00 0.00 80 1014.6
20260510222445 27 167 0.0 0.0 0.00 0.00 0.00 79 1014.6
20260510221944 27 167 0.0 0.0 0.00 0.00 0.00 79 1014.6
20260510221448 27 92 0.0 0.0 0.00 0.00 0.00 78 1014.6
20260510221443 27 167 0.0 0.0 0.00 0.00 0.00 79 1014.6
20260510220447 27 199 0.0 0.0 0.00 0.00 0.00 77 1014.7
20260510220443 27 92 0.0 0.0 0.00 0.00 0.00 78 1014.5
20260510215940 27 92 0.0 0.0 0.00 0.00 0.00 77 1014.6
20260510214938 27 128 0.0 0.0 0.00 0.00 0.00 77 1014.6
20260510214439 28 128 0.0 0.0 0.00 0.00 0.00 76 1014.6
20260510213939 27 209 0.0 0.0 0.00 0.00 0.00 77 1014.6
20260510213439 27 302 0.0 0.0 0.00 0.00 0.00 78 1014.6
20260510212939 27 199 0.0 0.0 0.00 0.00 0.00 77 1014.5
20260510212439 28 52 0.0 0.0 0.00 0.00 0.00 75 1014.6
20260510211938 28 309 0.0 0.0 0.00 0.00 0.00 75 1014.7
20260510211438 28 108 0.0 0.0 0.00 0.00 0.00 76 1014.6
20260510210939 27 169 0.0 0.0 0.00 0.00 0.00 75 1014.5
20260510210439 28 59 0.0 0.0 0.00 0.00 0.00 76 1014.6
20260510205938 28 119 0.0 0.0 0.00 0.00 0.00 77 1014.6
20260510205438 28 161 0.0 0.0 0.00 0.00 0.00 75 1014.6
20260510204945 28 334 0.0 0.0 0.00 0.00 0.00 76 1014.7
20260510204939 28 51 0.0 0.0 0.00 0.00 0.00 75 1014.6
20260510204439 28 51 0.0 0.0 0.00 0.00 0.00 76 1014.7
20260510203438 28 334 0.0 0.0 0.00 0.00 0.00 75 1014.7
20260510202939 28 88 0.0 0.0 0.00 0.00 0.00 74 1014.7
20260510202444 29 355 0.0 0.0 0.00 0.00 0.00 73 1014.6
20260510202440 28 143 0.0 0.0 0.00 0.00 0.00 75 1014.7
20260510201438 30 63 0.0 0.0 0.00 0.00 0.00 73 1014.6
20260510200938 30 60 0.0 0.0 0.00 0.00 0.00 74 1014.5
20260510200443 30 233 0.0 0.0 0.00 0.00 0.00 76 1014.4
20260510200439 30 233 0.0 0.0 0.00 0.00 0.00 77 1014.5
20260510195937 30 233 0.0 0.0 0.00 0.00 0.00 75 1014.4
20260510195542 30 238 0.0 0.0 0.00 0.00 0.00 74 1014.2
20260510194441 29 281 0.0 0.0 0.00 0.00 0.00 76 1014.2
20260510194436 30 245 0.0 0.0 0.00 0.00 0.00 74 1014.2
20260510193439 29 281 0.0 0.0 0.00 0.00 0.00 77 1014.3
20260510193435 29 191 0.0 0.0 0.00 0.00 0.00 79 1014.1
20260510192434 29 191 0.0 0.0 0.00 0.00 0.00 79 1014.0
20260510191933 28 191 0.0 0.0 0.00 0.00 0.00 79 1014.1
20260510191430 28 191 0.0 0.0 0.00 0.00 0.00 79 1014.2
20260510190932 28 191 0.0 0.0 0.00 0.00 0.00 78 1014.1
20260510190430 28 191 0.0 0.0 0.00 0.00 0.00 77 1014.1
20260510185929 28 191 0.0 0.0 0.00 0.00 0.00 76 1014.2
20260510185432 29 190 0.0 0.0 0.00 0.00 0.00 74 1014.3
20260510185428 29 190 0.0 0.0 0.00 0.00 0.00 76 1014.3
20260510184428 30 190 0.0 0.0 0.00 0.00 0.00 74 1014.3
20260510183932 30 128 0.0 0.0 0.00 0.00 0.00 71 1014.4
20260510183928 30 190 0.0 0.0 0.00 0.00 0.00 72 1014.4
20260510182928 30 128 0.0 0.0 0.00 0.00 0.00 70 1014.5
20260510182426 31 128 0.0 0.0 0.00 0.00 0.00 68 1014.5
20260510181926 32 284 0.0 0.0 0.00 0.00 0.00 66 1014.5
20260510181426 32 283 0.0 0.0 0.00 0.00 0.00 61 1014.4
20260510180927 32 280 0.0 0.0 0.00 0.00 0.00 65 1014.5
20260510180426 32 276 0.0 0.0 0.00 0.00 0.00 66 1014.6
20260510175931 31 262 0.0 0.0 0.00 0.00 0.00 68 1014.8
20260510175926 32 276 0.0 0.0 0.00 0.00 0.00 65 1014.6
20260510175536 31 262 0.0 0.0 0.00 0.00 0.00 67 1014.9
20260510175426 31 302 0.0 0.0 0.00 0.00 0.00 65 1014.7
20260510173926 31 205 0.0 0.0 0.00 0.00 0.00 67 1015.0
20260510173424 31 260 0.0 0.0 0.00 0.00 0.00 65 1015.0
20260510172926 31 259 0.0 0.0 0.00 0.00 0.00 69 1015.1
20260510172424 31 259 0.0 0.0 0.00 0.00 0.00 67 1015.2
20260510171925 31 231 0.0 0.0 0.00 0.00 0.00 68 1015.2
20260510171424 30 267 0.0 0.0 0.00 0.00 0.00 71 1015.2
20260510170925 30 264 0.0 0.0 0.00 0.00 0.00 72 1015.3
20260510170425 31 262 0.0 0.0 0.00 0.00 0.00 69 1015.4
20260510165924 30 258 0.0 0.0 0.00 0.00 0.00 69 1015.5
20260510165424 31 238 0.0 0.0 0.00 0.00 0.00 70 1015.6
20260510164925 31 238 0.0 0.0 0.00 0.00 0.00 70 1015.7
20260510164427 30 233 0.0 0.0 0.00 0.00 0.00 72 1015.8
20260510164422 30 235 0.0 0.0 0.00 0.00 0.00 71 1015.8
20260510164030 31 233 0.0 0.0 0.00 0.00 0.00 73 1015.9
20260510162922 31 233 0.0 0.0 0.00 0.00 0.00 71 1015.9
20260510162427 30 237 0.0 0.0 0.00 0.00 0.00 74 1016.0
20260510162422 31 40 0.0 0.0 0.00 0.00 0.00 71 1015.9
20260510161422 30 236 0.0 0.0 0.00 0.00 0.00 76 1015.9
20260510160923 30 264 0.0 0.0 0.00 0.00 0.00 77 1016.0
20260510160424 29 264 0.0 0.0 0.00 0.00 0.00 76 1016.0
20260510155924 29 265 0.0 0.0 0.00 0.00 0.00 76 1016.1
20260510155421 29 256 0.0 0.0 0.00 0.00 0.00 75 1016.0
20260510154921 29 256 0.0 0.0 0.00 0.00 0.00 76 1016.0
20260510154420 29 256 0.0 0.0 0.00 0.00 0.00 78 1016.0
20260510153919 28 281 0.0 0.0 0.00 0.00 0.00 79 1016.0
20260510153421 28 281 0.0 0.0 0.00 0.00 0.00 78 1016.1
20260510152920 28 281 0.0 0.0 0.00 0.00 0.00 79 1016.0
20260510152420 29 291 0.0 0.0 0.00 0.00 0.00 77 1016.0
20260510151920 29 117 0.0 0.0 0.00 0.00 0.00 78 1015.9
20260510151420 28 297 0.0 0.0 0.00 0.00 0.00 79 1015.9
20260510150919 28 275 0.0 0.0 0.00 0.00 0.00 77 1015.8
20260510150419 28 275 0.0 0.0 0.00 0.00 0.00 78 1015.9
20260510145917 28 277 0.0 0.0 0.00 0.00 0.00 79 1015.9
20260510145419 28 284 0.0 0.0 0.00 0.00 0.00 79 1015.9
20260510144924 28 284 0.0 0.0 0.00 0.00 0.00 81 1015.8
20260510144918 28 284 0.0 0.0 0.00 0.00 0.00 79 1015.9
20260510144525 28 284 0.0 0.0 0.00 0.00 0.00 80 1015.7
20260510143418 27 278 0.0 0.0 0.00 0.00 0.00 83 1015.8
20260510142917 27 281 0.0 0.0 0.00 0.00 0.00 83 1015.9
20260510142418 27 281 0.0 0.0 0.00 0.00 0.00 85 1016.0
20260510141917 27 281 0.0 0.0 0.00 0.00 0.00 85 1016.0
20260510141418 26 279 0.0 0.0 0.00 0.00 0.00 86 1015.9
20260510140918 26 279 0.0 0.0 0.00 0.00 0.00 86 1015.9
20260510140423 26 279 0.0 0.0 0.00 0.00 0.00 87 1015.8
20260510140418 26 279 0.0 0.0 0.00 0.00 0.00 87 1015.9
20260510135416 26 279 0.0 0.0 0.00 0.00 0.00 87 1015.7
20260510134920 26 132 0.0 0.0 0.00 0.00 0.00 90 1015.6
20260510134914 26 279 0.0 0.0 0.00 0.00 0.00 88 1015.6
20260510134415 26 284 0.0 0.0 0.00 0.00 0.00 88 1015.6
20260510134019 25 132 0.0 0.0 0.00 0.00 0.00 90 1015.5
20260510133517 26 132 0.0 0.0 0.00 0.00 0.00 90 1015.5
20260510133017 25 132 0.0 0.0 0.00 0.00 0.00 91 1015.4
20260510131912 25 132 0.0 0.0 0.00 0.00 0.00 92 1015.5
20260510131412 25 132 0.0 0.0 0.00 0.00 0.00 92 1015.5
20260510130911 25 132 0.0 0.0 0.00 0.00 0.00 92 1015.3
20260510130412 25 132 0.0 0.0 0.00 0.00 0.00 93 1015.3
20260510125911 25 132 0.0 0.0 0.00 0.00 0.00 93 1015.3
20260510125412 25 132 0.0 0.0 0.00 0.00 0.00 93 1015.2
20260510124911 25 132 0.0 0.0 0.00 0.00 0.00 93 1015.2
20260510124412 24 132 0.0 0.0 0.00 0.00 0.00 93 1015.2
20260510123918 23 132 0.0 0.0 0.00 0.00 0.00 93 1015.2
20260510123911 24 132 0.0 0.0 0.00 0.00 0.00 94 1015.2
20260510123412 24 132 0.0 0.0 0.00 0.00 0.00 94 1015.2
20260510122412 23 132 0.0 0.0 0.00 0.00 0.00 94 1015.1
20260510121912 23 132 0.0 0.0 0.00 0.00 0.00 94 1014.9
20260510121412 23 132 0.0 0.0 0.00 0.00 0.00 94 1014.9
20260510120912 23 132 0.0 0.0 0.00 0.00 0.00 94 1014.8
20260510120411 23 132 0.0 0.0 0.00 0.00 0.00 94 1014.8
20260510115910 23 132 0.0 0.0 0.00 0.00 0.00 94 1014.7
20260510115410 22 132 0.0 0.0 0.00 0.00 0.00 93 1014.7
20260510114910 22 132 0.0 0.0 0.00 0.00 0.00 93 1014.6
20260510114410 22 132 0.0 0.0 0.00 0.00 0.00 94 1014.5
20260510113907 22 132 0.0 0.0 0.00 0.00 0.00 94 1014.4
20260510113408 22 132 0.0 0.0 0.00 0.00 0.00 94 1014.3
20260510112905 22 132 0.0 0.0 0.00 0.00 0.00 94 1014.3
20260510112411 22 132 0.0 0.0 0.00 0.00 0.00 93 1014.1
20260510112406 22 132 0.0 0.0 0.00 0.00 0.00 93 1014.3
20260510111905 22 132 0.0 0.0 0.00 0.00 0.00 93 1014.2
20260510110905 22 132 0.0 0.0 0.00 0.00 0.00 93 1014.0
20260510110405 22 132 0.0 0.0 0.00 0.00 0.00 93 1013.9
20260510105904 22 132 0.0 0.0 0.00 0.00 0.00 93 1013.8
20260510105403 22 132 0.0 0.0 0.00 0.00 0.00 93 1013.7
20260510104906 22 132 0.0 0.0 0.00 0.00 0.00 93 1013.6
20260510104902 22 132 0.0 0.0 0.00 0.00 0.00 93 1013.7
20260510103901 22 132 0.0 0.0 0.00 0.00 0.00 93 1013.5
20260510103401 22 132 0.0 0.0 0.00 0.00 0.00 93 1013.5
20260510102902 22 132 0.0 0.0 0.00 0.00 0.00 93 1013.4
20260510102401 22 132 0.0 0.0 0.00 0.00 0.00 93 1013.4
20260510101901 22 132 0.0 0.0 0.00 0.00 0.00 93 1013.3
20260510101401 22 132 0.0 0.0 0.00 0.00 0.00 93 1013.3
20260510100902 22 132 0.0 0.0 0.00 0.00 0.00 93 1013.2
20260510100401 22 132 0.0 0.0 0.00 0.00 0.00 93 1013.1
20260510095902 22 132 0.0 0.0 0.00 0.00 0.00 93 1013.1
20260510095401 22 132 0.0 0.0 0.00 0.00 0.00 93 1013.0
20260510094901 22 132 0.0 0.0 0.00 0.00 0.00 93 1013.0
20260510094401 22 132 0.0 0.0 0.00 0.00 0.00 93 1013.0
20260510093906 22 132 0.0 0.0 0.00 0.00 0.00 93 1013.0
20260510093901 22 132 0.0 0.0 0.00 0.00 0.00 93 1012.9
20260510092906 22 132 0.0 0.0 0.00 0.00 0.00 93 1012.9
20260510092901 22 132 0.0 0.0 0.00 0.00 0.00 93 1012.9
20260510091859 22 132 0.0 0.0 0.00 0.00 0.00 93 1012.9
20260510091404 22 132 0.0 0.0 0.00 0.00 0.00 93 1012.8
20260510091400 22 132 0.0 0.0 0.00 0.00 0.00 93 1012.8
20260510090859 22 132 0.0 0.0 0.00 0.00 0.00 93 1012.8
20260510085859 22 132 0.0 0.0 0.00 0.00 0.00 93 1012.7
20260510085359 22 132 0.0 0.0 0.00 0.00 0.00 93 1012.7
20260510084903 22 132 0.0 0.0 0.00 0.00 0.00 93 1012.8
20260510084858 22 132 0.0 0.0 0.00 0.00 0.00 93 1012.7
20260510083858 22 132 0.0 0.0 0.00 0.00 0.00 93 1012.8
20260510083357 22 132 0.0 0.0 0.00 0.00 0.00 93 1012.7
20260510082857 22 132 0.0 0.0 0.00 0.00 0.00 93 1012.9
20260510082358 22 132 0.0 0.0 0.00 0.00 0.00 93 1012.9
20260510081857 22 132 0.0 0.0 0.00 0.00 0.00 93 1012.7
20260510081356 22 132 0.0 0.0 0.00 0.00 0.00 93 1012.8
20260510080855 22 132 0.0 0.0 0.00 0.00 0.00 93 1012.8
20260510080355 22 132 0.0 0.0 0.00 0.00 0.00 93 1012.9
20260510075856 22 132 0.0 0.0 0.00 0.00 0.00 92 1012.9
20260510075355 22 132 0.0 0.0 0.00 0.00 0.00 92 1012.9
20260510074856 22 132 0.0 0.0 0.00 0.00 0.00 92 1012.9
20260510074355 22 132 0.0 0.0 0.00 0.00 0.00 93 1012.9
20260510073855 22 132 0.0 0.0 0.00 0.00 0.00 93 1012.9
20260510073356 22 132 0.0 0.0 0.00 0.00 0.00 93 1013.0
20260510072859 22 132 0.0 0.0 0.00 0.00 0.00 93 1012.9
20260510072854 22 132 0.0 0.0 0.00 0.00 0.00 92 1013.1
20260510072500 22 132 0.0 0.0 0.00 0.00 0.00 92 1013.1
20260510071353 22 132 0.0 0.0 0.00 0.00 0.00 92 1013.1
20260510070854 22 132 0.0 0.0 0.00 0.00 0.00 92 1013.1
20260510070352 22 132 0.0 0.0 0.00 0.00 0.00 92 1013.1
20260510065852 22 132 0.0 0.0 0.00 0.00 0.00 92 1013.2
20260510065351 22 132 0.0 0.0 0.00 0.00 0.00 92 1013.2
20260510064851 22 132 0.0 0.0 0.00 0.00 0.00 92 1013.3
20260510064351 22 132 0.0 0.0 0.00 0.00 0.00 92 1013.3
20260510063851 22 132 0.0 0.0 0.00 0.00 0.00 92 1013.2
20260510063349 22 132 0.0 0.0 0.00 0.00 0.00 92 1013.4
20260510062848 22 132 0.0 0.0 0.00 0.00 0.00 92 1013.4
20260510062350 22 132 0.0 0.0 0.00 0.00 0.00 92 1013.4
20260510061849 22 132 0.0 0.0 0.00 0.00 0.00 92 1013.5
20260510061348 22 132 0.0 0.0 0.00 0.00 0.00 92 1013.4
20260510060847 22 132 0.0 0.0 0.00 0.00 0.00 92 1013.5
20260510060348 22 132 0.0 0.0 0.00 0.00 0.00 92 1013.5
20260510055846 22 132 0.0 0.0 0.00 0.00 0.00 92 1013.6
20260510055347 22 132 0.0 0.0 0.00 0.00 0.00 92 1013.6
20260510054847 22 132 0.0 0.0 0.00 0.00 0.00 92 1013.6
20260510054346 22 132 0.0 0.0 0.00 0.00 0.00 92 1013.6
20260510053845 22 132 0.0 0.0 0.00 0.00 0.00 91 1013.7
20260510053345 22 132 0.0 0.0 0.00 0.00 0.00 91 1013.8
20260510052845 22 132 0.0 0.0 0.00 0.00 0.00 91 1013.9
20260510052345 22 132 0.0 0.0 0.00 0.00 0.00 91 1014.0
20260510051845 22 132 0.0 0.0 0.00 0.00 0.00 91 1014.2
20260510051344 22 132 0.0 0.0 0.00 0.00 0.00 91 1014.3
20260510050845 22 132 0.0 0.0 0.00 0.00 0.00 91 1014.5
20260510050345 22 132 0.0 0.0 0.00 0.00 0.00 91 1014.6
20260510045849 22 132 0.0 0.0 0.00 0.00 0.00 91 1014.5
20260510045845 22 132 0.0 0.0 0.00 0.00 0.00 91 1014.5
20260510044844 22 132 0.0 0.0 0.00 0.00 0.00 91 1014.4
20260510044345 22 132 0.0 0.0 0.00 0.00 0.00 91 1014.5
20260510043845 22 132 0.0 0.0 0.00 0.00 0.00 91 1014.5
20260510043345 22 132 0.0 0.0 0.00 0.00 0.00 91 1014.5
20260510042845 22 132 0.0 0.0 0.00 0.00 0.00 91 1014.6
20260510042344 22 132 0.0 0.0 0.00 0.00 0.00 91 1014.5
20260510041846 23 132 0.0 0.0 0.00 0.00 0.00 91 1014.5
20260510041345 23 132 0.0 0.0 0.00 0.00 0.00 91 1014.4
20260510040844 23 132 0.0 0.0 0.00 0.00 0.00 90 1014.4
20260510040348 23 132 0.0 0.0 0.00 0.00 0.00 90 1014.4
20260510040344 23 132 0.0 0.0 0.00 0.00 0.00 90 1014.3
20260510035341 23 132 0.0 0.0 0.00 0.00 0.00 90 1014.4
20260510034842 23 132 0.0 0.0 0.00 0.00 0.00 90 1014.4
20260510034342 23 132 0.0 0.0 0.00 0.00 0.00 90 1014.2
20260510033842 23 132 0.0 0.0 0.00 0.00 0.00 90 1014.3
20260510033342 23 132 0.0 0.0 0.00 0.00 0.00 90 1014.1
20260510032842 23 132 0.0 0.0 0.00 0.00 0.00 90 1014.1
20260510032341 23 132 0.0 0.0 0.00 0.00 0.00 90 1014.2
20260510031842 23 132 0.0 0.0 0.00 0.00 0.00 90 1014.2
20260510031342 23 132 0.0 0.0 0.00 0.00 0.00 90 1014.3
20260510030843 23 132 0.0 0.0 0.00 0.00 0.00 89 1014.3
20260510030342 23 132 0.0 0.0 0.00 0.00 0.00 89 1014.4
20260510025846 23 132 0.0 0.0 0.00 0.00 0.00 89 1014.2
20260510025842 23 132 0.0 0.0 0.00 0.00 0.00 89 1014.3
20260510024846 23 132 0.0 0.0 0.00 0.00 0.00 89 1014.2
20260510024842 23 132 0.0 0.0 0.00 0.00 0.00 89 1014.2
20260510023842 23 132 0.0 0.0 0.00 0.00 0.00 88 1014.2
20260510023345 23 132 0.0 0.0 0.00 0.00 0.00 88 1014.3
20260510023341 23 132 0.0 0.0 0.00 0.00 0.00 88 1014.3
20260510022342 24 132 0.0 0.0 0.00 0.00 0.00 88 1014.3
20260510021842 24 132 0.0 0.0 0.00 0.00 0.00 88 1014.1
20260510021342 24 132 0.0 0.0 0.00 0.00 0.00 88 1014.2
20260510020841 24 132 0.0 0.0 0.00 0.00 0.00 88 1014.1
20260510020342 24 132 0.0 0.0 0.00 0.00 0.00 87 1014.0
20260510015842 24 132 0.0 0.0 0.00 0.00 0.00 87 1014.1
20260510015341 24 132 0.0 0.0 0.00 0.00 0.00 87 1014.1
20260510014842 24 132 0.0 0.0 0.00 0.00 0.00 87 1014.1
20260510014340 24 132 0.0 0.0 0.00 0.00 0.00 87 1014.0
20260510013843 24 132 0.0 0.0 0.00 0.00 0.00 87 1013.8
20260510013839 24 132 0.0 0.0 0.00 0.00 0.00 87 1013.9
20260510012837 24 132 0.0 0.0 0.00 0.00 0.00 87 1013.8
20260510012338 24 132 0.0 0.0 0.00 0.03 0.00 87 1013.8
20260510011837 24 132 0.0 0.0 0.00 0.03 0.00 87 1013.6
20260510011343 24 132 0.0 0.0 0.00 0.05 0.00 87 1013.5
20260510011338 24 132 0.0 0.0 0.00 0.03 0.00 87 1013.6
20260510010339 24 132 0.0 0.0 0.00 0.08 0.00 86 1013.5
20260510005838 24 132 0.0 0.0 0.00 0.08 0.00 87 1013.5
20260510005336 24 132 0.0 0.0 0.00 0.13 0.00 87 1013.5
20260510004835 24 132 0.0 0.0 0.00 0.18 0.00 87 1013.4
20260510004340 24 132 0.0 0.0 0.00 0.20 0.00 86 1012.9
20260510004335 24 132 0.0 0.0 0.00 0.20 0.00 86 1013.2
20260510003333 25 132 0.0 0.0 0.00 0.20 0.00 86 1013.0
20260510002831 25 132 0.0 0.0 0.00 0.20 0.00 86 1013.0
20260510002332 25 132 0.0 0.0 0.00 0.20 0.00 85 1013.0
20260510001836 25 132 0.0 0.0 0.00 0.20 0.00 85 1012.9
20260510001832 25 132 0.0 0.0 0.00 0.20 0.00 85 1013.0
20260510000832 25 279 0.0 0.0 0.00 0.20 0.00 85 1012.8
20260510000333 25 279 0.0 0.0 0.00 0.20 0.00 85 1012.7
20260509235833 25 279 0.0 0.0 0.00 0.20 0.00 85 1012.6
20260509235331 25 279 0.0 0.0 0.00 0.20 0.00 84 1012.5
20260509234829 25 279 0.0 0.0 0.00 0.20 0.00 84 1012.5
20260509234335 25 157 0.0 0.0 0.00 0.20 0.00 83 1012.4
20260509234331 25 279 0.0 0.0 0.00 0.20 0.00 83 1012.4
20260509233329 25 157 0.0 0.0 0.00 0.20 0.00 83 1012.4
20260509232829 25 93 0.0 0.0 0.00 0.20 0.00 83 1012.3
20260509232333 26 196 0.0 0.0 0.00 0.20 0.00 83 1012.3
20260509232329 25 196 0.0 0.0 0.00 0.20 0.00 83 1012.3
20260509231331 26 148 0.0 0.0 0.00 0.20 0.00 83 1012.2